User: anonymous   Login
Location: Unspecified
(0.0000°N, 0.0000°E)
Time: 21:54:06
(UTC+00:00)
Language:

STARLINK-35469 - Orbit

View from above orbital plane
View from above orbital plane
View from above satellite
View from above satellite

Ground track
Ground track

The orbit is defined by the following mean orbital elements,

1 65863U          26145.40004328 +.00000000 +00000-0 +95464-3 0 00001
2 65863  53.1595 297.6332 0002092  87.5716 272.5526 15.34421610    03
Epoch (UTC): 25 May 2026 09:36:03
Eccentricity: 0.0002092
inclination: 53.1595°
perigee height: 461 km
apogee height: 464 km
right ascension of ascending node: 297.6332°
argument of perigee: 87.5716°
revolutions per day: 15.34421610
mean anomaly at epoch: 272.5526°

The dashed part of the orbit path shows where the satellite is in the earth's shadow,  

DLR